1287619226185,0.586846
1287619286185,0.584703
1287619346185,0.581632
1287619406185,0.584708
1287619466185,0.579049
1287619526185,0.584780
1287619586185,0.586990
1287619646185,0.577644
1287619706185,0.582523
1287619766185,0.579190
1287619826185,0.583755
1287619886185,0.586450
1287619946185,0.580723
1287620006185,0.583669
1287620066185,0.584941
1287620126185,0.585873
1287620186185,0.589023
1287620246185,0.586685
1287620306185,0.586733
1287620366185,0.589683
1287620426185,0.579176
1287620486185,0.583051
1287620546185,0.585658
1287620606185,0.589257
1287620666185,0.584570
1287620726185,0.578381
1287620786185,0.587228
1287620846185,0.579984
1287620906185,0.578779
1287620966185,0.584967
1287621026185,0.581826
1287621086185,0.577885
1287621146185,0.577946
1287621206185,0.576645
1287621266185,0.583270
1287621326185,0.583660
1287621386185,0.583869
1287621446185,0.581248
1287621506185,0.581087
1287621566185,0.587445
1287621626185,0.577443
1287621686185,0.581869
1287621746185,0.579764
1287621806185,0.582709
1287621866185,0.580194
1287621926185,0.586509
1287621986185,0.579323
1287622046185,0.585016
1287622106185,0.581936
1287622166185,0.583453
1287622226185,0.586456
1287622286185,0.578395
1287622346185,0.577439
1287622406185,0.586590
1287622466185,0.582207
1287622526185,0.585416
1287622586185,0.588171
1287622646185,0.577892
1287622706185,0.584471
1287622766185,0.583685
1287622826195,0.584977
1287622886195,0.583322
1287622946195,0.581760
1287623006195,0.581054
1287623066195,0.582851
1287623126195,0.580222
1287623186195,0.586394
1287623246195,0.583897
1287623306195,0.578263
1287623366195,0.581375
1287623426195,0.578390
1287623486195,0.587071
1287623546195,0.581219
1287623606195,0.582823
1287623666195,0.581383
1287623726195,0.587944
1287623786195,0.579389
1287623846195,0.580071
1287623906195,0.585269
1287623966195,0.581923
1287624026195,0.584218
1287624086195,0.580290
1287624146195,0.582175
1287624206195,0.581787
1287624266195,0.578885
1287624326195,0.582554
1287624386195,0.582916
1287624446195,0.583460
1287624506195,0.578817
1287624566195,0.579098
1287624626195,0.579599
1287624686195,0.571320
1287624746195,0.584116
1287624806195,0.580609
1287624866195,0.579248
1287624926195,0.581208
1287624986195,0.578244
1287625046195,0.585714
1287625106195,0.583477
1287625166195,0.579373
1287625226195,0.578435
1287625286195,0.577983
1287625346195,0.575284
1287625406195,0.577853
1287625466195,0.583684
1287625526195,0.583562
1287625586195,0.586092
1287625646195,0.584435
1287625706195,0.584621
1287625766195,0.581579
1287625826195,0.584312
1287625886195,0.583681
1287625946195,0.587194
1287626006195,0.588946
1287626066195,0.584298
1287626126195,0.583763
1287626186195,0.583322
1287626246195,0.592176
1287626306195,0.580909
1287626366195,0.582747
1287626426205,0.583631
1287626486205,0.580851
1287626546205,0.585645
1287626606205,0.581188
1287626666205,0.575236
1287626726205,0.584135
1287626786205,0.581938
1287626846205,0.585416
1287626906205,0.578706
1287626966205,0.582523
1287627026205,0.582835
1287627086205,0.584894
1287627146205,0.583189
1287627206205,0.581413
1287627266205,0.578341
1287627326205,0.582279
1287627386205,0.586352
1287627446205,0.580171
1287627506205,0.581047
1287627566205,0.587193
1287627626205,0.574192
1287627686205,0.587386
1287627746205,0.580637
1287627806205,0.581451
1287627866205,0.581001
1287627926205,0.579466
1287627986205,0.581888
1287628046205,0.581170
1287628106205,0.587743
1287628166205,0.583970
1287628226205,0.583383
1287628286205,0.579799
1287628346205,0.580545
1287628406205,0.581850
1287628466205,0.580401
1287628526205,0.574490
1287628586205,0.577917
1287628646205,0.584036
1287628706205,0.575031
1287628766205,0.578105
1287628826205,0.574477
1287628886205,0.577916
1287628946205,0.581658
1287629006205,0.584701
1287629066205,0.576669
1287629126205,0.584318
1287629186205,0.582666
1287629246205,0.582771
1287629306205,0.583421
1287629366205,0.584002
1287629426205,0.581621
1287629486205,0.587011
1287629546205,0.582503
1287629606205,0.580831
1287629666205,0.575023
1287629726205,0.576816
1287629786205,0.580348
1287629846205,0.587412
1287629906205,0.579907
1287629966205,0.580135
1287630026215,0.576482
1287630086215,0.577342
1287630146215,0.578916
1287630206215,0.580530
1287630266215,0.576820
1287630326215,0.577305
1287630386215,0.582817
1287630446215,0.578129
1287630506215,0.577348
1287630566215,0.582421
1287630626215,0.583381
1287630686215,0.575302
1287630746215,0.578120
1287630806215,0.570171
1287630866215,0.579082
1287630926215,0.579301
1287630986215,0.576977
1287631046215,0.576705
1287631106215,0.582160
1287631166215,0.580362
1287631226215,0.573830
1287631286215,0.578169
1287631346215,0.576314
1287631406215,0.578998
1287631466215,0.575117
1287631526215,0.585159
1287631586215,0.581405
1287631646215,0.582408
1287631706215,0.577447
1287631766215,0.584733
1287631826215,0.590484
1287631886215,0.580574
1287631946215,0.577086
1287632006215,0.587686
1287632066215,0.577474
1287632126215,0.573158
1287632186215,0.575233
1287632246215,0.574725
1287632306215,0.578848
1287632366215,0.578781
1287632426215,0.574322
1287632486215,0.576371
1287632546215,0.573798
1287632606215,0.581405
1287632666215,0.578682
1287632726215,0.579122
1287632786215,0.580266
1287632846215,0.577442
1287632906215,0.580207
1287632966215,0.579442
1287633026215,0.581524
1287633086215,0.580036
1287633146215,0.580716
1287633206215,0.581121
1287633266215,0.575503
1287633326215,0.576986
1287633386215,0.577807
1287633446215,0.588508
1287633506215,0.578919
1287633566215,0.578352
1287633626225,0.578189
1287633686225,0.575275
1287633746225,0.582571
1287633806225,0.575145
1287633866225,0.581616
1287633926225,0.575823
1287633986225,0.582357
1287634046225,0.583902
1287634106225,0.576584
1287634166225,0.578940
1287634226225,0.572735
1287634286225,0.569845
1287634346225,0.577583
1287634406225,0.579041
1287634466225,0.579332
1287634526225,0.578361
1287634586225,0.580297
1287634646225,0.572053
1287634706225,0.576669
1287634766225,0.574383
1287634826225,0.577280
1287634886225,0.576640
1287634946225,0.573819
1287635006225,0.570368
1287635066225,0.576811
1287635126225,0.579351
1287635186225,0.575840
1287635246225,0.576779
1287635306225,0.578807
1287635366225,0.583797
1287635426225,0.572743
1287635486225,0.574390
1287635546225,0.572085
1287635606225,0.585328
1287635666225,0.575477
1287635726225,0.575944
1287635786225,0.576557
1287635846225,0.581478
1287635906225,0.582036
1287635966225,0.579388
1287636026225,0.572523
1287636086225,0.574710
1287636146225,0.572082
1287636206225,0.575450
1287636266225,0.577267
1287636326225,0.568488
1287636386225,0.574390
1287636446225,0.572322
1287636506225,0.578322
1287636566225,0.570234
1287636626225,0.579913
1287636686225,0.574266
1287636746225,0.580436
1287636806225,0.576272
1287636866225,0.580308
1287636926225,0.572142
1287636986225,0.575253
1287637046225,0.574007
1287637106225,0.585350
1287637166225,0.580036
1287637226235,0.582866
1287637286235,0.585510
1287637346235,0.575571
1287637406235,0.570244
1287637466235,0.575891
1287637526235,0.575924
1287637586235,0.577665
1287637646235,0.572925
1287637706235,0.575388
1287637766235,0.577276
1287637826235,0.583219
1287637886235,0.575311
1287637946235,0.583408
1287638006235,0.577546
1287638066235,0.573031
1287638126235,0.573150
1287638186235,0.573542
1287638246235,0.579037
1287638306235,0.573396
1287638366235,0.571382
1287638426235,0.579043
1287638486235,0.571673
1287638546235,0.575197
1287638606235,0.571061
1287638666235,0.579124
1287638726235,0.584917
1287638786235,0.583412
1287638846235,0.578354
1287638906235,0.588906
1287638966235,0.581237
1287639026235,0.580688
1287639086235,0.580298
1287639146235,0.583725
1287639206235,0.581019
1287639266235,0.574174
1287639326235,0.583978
1287639386235,0.579037
1287639446235,0.579450
1287639506235,0.579050
1287639566235,0.573828
1287639626235,0.573505
1287639686235,0.581174
1287639746235,0.582685
1287639806235,0.579859
1287639866235,0.580219
1287639926235,0.571186
1287639986235,0.579923
1287640046235,0.574513
1287640106235,0.576361
1287640166235,0.576212
1287640226235,0.576815
1287640286235,0.567407
1287640346235,0.583336
1287640406235,0.575941
1287640466235,0.579228
1287640526235,0.574965
1287640586235,0.579067
1287640646235,0.573343
1287640706235,0.572964
1287640766235,0.574946
1287640826245,0.578283
1287640886245,0.584119
1287640946245,0.571878
1287641006245,0.581610
1287641066245,0.581014
1287641126245,0.578600
1287641186245,0.576590
1287641246245,0.576035
1287641306245,0.577623
1287641366245,0.579606
1287641426245,0.569380
1287641486245,0.575082
1287641546245,0.574996
1287641606245,0.578878
1287641666245,0.573866
1287641726245,0.571565
1287641786245,0.575728
1287641846245,0.577517
1287641906245,0.580331
1287641966245,0.578476
1287642026245,0.574461
1287642086245,0.577061
1287642146245,0.578443
1287642206245,0.575622
1287642266245,0.578003
1287642326245,0.575122
1287642386245,0.581636
1287642446245,0.577648
1287642506245,0.575076
1287642566245,0.577508
1287642626245,0.574513
1287642686245,0.578116
1287642746245,0.572921
1287642806245,0.578797
1287642866245,0.575233
1287642926245,0.572995
1287642986245,0.585383
1287643046245,0.574684
1287643106245,0.584491
1287643166245,0.576520
1287643226245,0.576205
1287643286245,0.575984
1287643346245,0.581135
1287643406245,0.579801
1287643466245,0.579194
1287643526245,0.577917
1287643586245,0.584290
1287643646245,0.570952
1287643706245,0.578330
1287643766245,0.584783
1287643826245,0.586756
1287643886245,0.576236
1287643946245,0.579073
1287644006245,0.579648
1287644066245,0.579354
1287644126245,0.578450
1287644186245,0.578430
1287644246245,0.581037
1287644306245,0.579199
1287644366245,0.581759
1287644426255,0.579858
1287644486255,0.577401
1287644546255,0.575452
1287644606255,0.578848
1287644666255,0.576969
1287644726255,0.578132
1287644786255,0.571319
1287644846255,0.573871
1287644906255,0.570883
1287644966255,0.577643
1287645026255,0.573403
1287645086255,0.574763
1287645146255,0.577246
1287645206255,0.583100
1287645266255,0.570959
1287645326255,0.579910
1287645386255,0.581766
1287645446255,0.573683
1287645506255,0.576200
1287645566255,0.579931
1287645626255,0.576993
1287645686255,0.573313
1287645746255,0.573840
1287645806255,0.570476
1287645866255,0.574848
1287645926255,0.577742
1287645986255,0.578796
1287646046255,0.569811
1287646106255,0.577605
1287646166255,0.572085
1287646226255,0.570381
1287646286255,0.576099
1287646346255,0.575650
1287646406255,0.573165
1287646466255,0.575701
1287646526255,0.576134
1287646586255,0.572775
1287646646255,0.575874
1287646706255,0.571985
1287646766255,0.574070
1287646826255,0.570834
1287646886255,0.573080
1287646946255,0.576546
1287647006255,0.572083
1287647066255,0.575520
1287647126255,0.573831
1287647186255,0.573675
1287647246255,0.577963
1287647306255,0.576355
1287647366255,0.573909
1287647426255,0.571976
1287647486255,0.572373
1287647546255,0.578075
1287647606255,0.574389
1287647666255,0.575090
1287647726255,0.574515
1287647786255,0.572080
1287647846255,0.571085
1287647906255,0.568685
1287647966255,0.577605
1287648026265,0.572981
1287648086265,0.578348
1287648146265,0.574681
1287648206265,0.572544
1287648266265,0.571988
1287648326265,0.572518
1287648386265,0.567912
1287648446265,0.577351
1287648506265,0.572406
1287648566265,0.576436
1287648626265,0.576275
1287648686265,0.576405
1287648746265,0.578920
1287648806265,0.572950
1287648866265,0.576241
1287648926265,0.576267
1287648986265,0.575598
1287649046265,0.573220
1287649106265,0.574591
1287649166265,0.570364
1287649226265,0.572828
1287649286265,0.573257
1287649346265,0.576106
1287649406265,0.572466
1287649466265,0.568507
1287649526265,0.571629
1287649586265,0.573946
1287649646265,0.569941
1287649706265,0.573399
1287649766265,0.575301
1287649826265,0.569007
1287649886265,0.572921
1287649946265,0.579546
1287650006265,0.569786
1287650066265,0.573717
1287650126265,0.575140
1287650186265,0.576569
1287650246265,0.576361
1287650306265,0.583435
1287650366265,0.575714
1287650426265,0.582270
1287650486265,0.577376
1287650546265,0.582830
1287650606265,0.583328
1287650666265,0.578088
1287650726265,0.583394
1287650786265,0.578533
1287650846265,0.585792
1287650906265,0.577353
1287650966265,0.580546
1287651026265,0.587746
1287651086265,0.591546
1287651146265,0.593447
1287651206265,0.590658
1287651266265,0.592737
1287651326265,0.590474
1287651386265,0.586437
1287651446265,0.586324
1287651506265,0.587340
1287651566265,0.582474
1287651626276,0.574124
1287651686276,0.579189
1287651746276,0.583047
1287651806276,0.578958
1287651866276,0.575153
1287651926276,0.576932
1287651986276,0.579140
1287652046276,0.577919
1287652106276,0.575172
1287652166276,0.580210
1287652226276,0.577206
1287652286276,0.571432
1287652346276,0.577003
1287652406276,0.575366
1287652466276,0.572957
1287652526276,0.569809
1287652586276,0.573625
1287652646276,0.572834
1287652706276,0.576966
1287652766276,0.577972
1287652826276,0.574724
1287652886276,0.573997
1287652946276,0.568500
1287653006276,0.575559
1287653066276,0.577771
1287653126276,0.572743
1287653186276,0.572345
1287653246276,0.578123
1287653306276,0.573682
1287653366276,0.571186
1287653426276,0.574855
1287653486276,0.580764
1287653546276,0.571744
1287653606276,0.575849
1287653666276,0.574409
1287653726276,0.573709
1287653786276,0.575307
1287653846276,0.572236
1287653906276,0.573749
1287653966276,0.575157
1287654026276,0.571113
1287654086276,0.565281
1287654146276,0.574808
1287654206276,0.577284
1287654266276,0.577928
1287654326276,0.574992
1287654386276,0.573711
1287654446276,0.575333
1287654506276,0.571495
1287654566276,0.570662
1287654626276,0.574002
1287654686276,0.573828
1287654746276,0.573709
1287654806276,0.567826
1287654866276,0.571884
1287654926276,0.570583
1287654986276,0.572161
1287655046276,0.574076
1287655106276,0.571686
1287655166276,0.572095
1287655226286,0.568723
1287655286286,0.580264
1287655346286,0.576581
1287655406286,0.572984
1287655466286,0.569455
1287655526286,0.571883
1287655586286,0.568076
1287655646286,0.569447
1287655706286,0.575612
1287655766286,0.573862
1287655826286,0.575389
1287655886286,0.573817
1287655946286,0.571466
1287656006286,0.576505
1287656066286,0.564889
1287656126286,0.568333
1287656186286,0.570850
1287656246287,0.565755
1287656306287,0.572723
1287656366287,0.569044
1287656426286,0.571679
1287656486286,0.570684
1287656546286,0.573738
1287656606286,0.576493
1287656666286,0.578754
1287656726286,0.575828
1287656786286,0.576494
1287656846286,0.574927
1287656906286,0.575071
1287656966286,0.576375
1287657026286,0.570258
1287657086286,0.571965
1287657146286,0.571941
1287657206286,0.580495
1287657266286,0.569265
1287657326286,0.575638
1287657386286,0.577361
1287657446286,0.575000
1287657506286,0.571100
1287657566286,0.572439
1287657626287,0.567803
1287657686287,0.574165
1287657746287,0.569825
1287657806286,0.575526
1287657866286,0.572295
1287657926286,0.565567
1287657986286,0.571079
1287658046286,0.573937
1287658106286,0.574082
1287658166286,0.571986
1287658226286,0.578996
1287658286286,0.574932
1287658346286,0.579819
1287658406286,0.575056
1287658466286,0.568842
1287658526286,0.574302
1287658586286,0.578932
1287658646286,0.574353
1287658706286,0.575114
1287658766286,0.573452
1287658826297,0.577158
1287658886297,0.583392
1287658946297,0.566640
1287659006297,0.572641
1287659066297,0.578054
1287659126297,0.575274
1287659186297,0.574668
1287659246297,0.576022
1287659306297,0.574202
1287659366297,0.569162
1287659426297,0.575518
1287659486297,0.572382
1287659546297,0.570286
1287659606297,0.573287
1287659666297,0.572776
1287659726297,0.571550
1287659786297,0.569085
1287659846297,0.572468
1287659906297,0.574387
1287659966297,0.575532
1287660026297,0.576947
1287660086297,0.570558
1287660146297,0.571846
1287660206297,0.579193
1287660266297,0.574610
1287660326297,0.570020
1287660386297,0.571723
1287660446297,0.572650
1287660506297,0.569327
1287660566297,0.578916
1287660626297,0.573436
1287660686297,0.571891
1287660746297,0.573362
1287660806297,0.573707
1287660866297,0.577439
1287660926297,0.568769
1287660986297,0.573046
1287661046297,0.575225
1287661106297,0.575923
1287661166297,0.573609
1287661226297,0.572208
1287661286297,0.575841
1287661346297,0.574374
1287661406297,0.573329
1287661466297,0.564984
1287661526297,0.568644
1287661586297,0.565337
1287661646297,0.567562
1287661706297,0.568893
1287661766297,0.567411
1287661826297,0.569330
1287661886297,0.571174
1287661946297,0.576270
1287662006297,0.569651
1287662066297,0.573640
1287662126297,0.562488
1287662186297,0.572424
1287662246297,0.572421
1287662306297,0.561084
1287662366297,0.572607
1287662426309,0.573627
1287662486309,0.572427
1287662546309,0.572908
1287662606309,0.571693
1287662666309,0.568863
1287662726309,0.567482
1287662786309,0.565977
1287662846309,0.570605
1287662906309,0.569359
1287662966309,0.570631
1287663026309,0.570765
1287663086309,0.566341
1287663146309,0.567711
1287663206309,0.573790
1287663266309,0.568946
1287663326309,0.575738
1287663386309,0.578002
1287663446309,0.571117
1287663506309,0.571629
1287663566309,0.574826
1287663626309,0.574176
1287663686309,0.576436
1287663746309,0.566369
1287663806309,0.573857
1287663866309,0.574587
1287663926309,0.567973
1287663986309,0.576673
1287664046309,0.568341
1287664106309,0.570223
1287664166309,0.573329
1287664226309,0.571307
1287664286309,0.574742
1287664346309,0.568657
1287664406309,0.572879
1287664466309,0.570827
1287664526309,0.569869
1287664586309,0.569485
1287664646309,0.577474
1287664706309,0.575510
1287664766309,0.573044
1287664826309,0.577026
1287664886309,0.573311
1287664946309,0.567768
1287665006309,0.571258
1287665066309,0.575742
1287665126309,0.568734
1287665186309,0.569830
1287665246309,0.570140
1287665306309,0.571661
1287665366309,0.573108
1287665426309,0.574317
1287665486309,0.569103
1287665546309,0.569065
1287665606309,0.569010
1287665666309,0.574195
1287665726309,0.571161
1287665786309,0.575815
1287665846309,0.574475
1287665906309,0.571274
1287665966309,0.571532
1287666026320,0.566926
1287666086320,0.573188
1287666146320,0.570438
1287666206320,0.572780
1287666266320,0.574069
1287666326320,0.572494
1287666386320,0.568026
1287666446320,0.570886
1287666506320,0.581779
1287666566320,0.575090
1287666626320,0.571126
1287666686320,0.569547
1287666746320,0.566894
1287666806320,0.571432
1287666866320,0.570656
1287666926320,0.567583
1287666986320,0.570051
1287667046320,0.578019
1287667106320,0.571920
1287667166320,0.568764
1287667226320,0.570044
1287667286320,0.569571
1287667346320,0.565724
1287667406320,0.570289
1287667466320,0.567584
1287667526320,0.573634
1287667586320,0.568183
1287667646320,0.571178
1287667706320,0.571370
1287667766320,0.576986
1287667826320,0.572361
1287667886320,0.568047
1287667946320,0.568321
1287668006320,0.570154
1287668066320,0.567786
1287668126320,0.568306
1287668186320,0.563819
1287668246320,0.566312
1287668306320,0.569774
1287668366320,0.574791
1287668426320,0.568794
1287668486320,0.567449
1287668546320,0.571857
1287668606320,0.575470
1287668666320,0.572015
1287668726320,0.565156
1287668786320,0.572495
1287668846320,0.569433
1287668906320,0.568599
1287668966320,0.569965
1287669026320,0.574743
1287669086320,0.568006
1287669146320,0.566799
1287669206320,0.569936
1287669266320,0.570855
1287669326320,0.572509
1287669386320,0.568183
1287669446320,0.567283
1287669506320,0.570107
1287669566320,0.567083
1287669626331,0.572864
1287669686331,0.572194
1287669746331,0.570067
1287669806331,0.566052
1287669866331,0.570670
1287669926331,0.569366
1287669986331,0.569003
1287670046331,0.573646
1287670106331,0.573772
1287670166331,0.569595
1287670226331,0.572768
1287670286331,0.575721
1287670346331,0.571229
1287670406331,0.574300
1287670466331,0.567888
1287670526331,0.579117
1287670586331,0.566863
1287670646331,0.568296
1287670706331,0.568634
1287670766331,0.571777
1287670826331,0.570144
1287670886331,0.564361
1287670946331,0.570704
1287671006331,0.571687
1287671066331,0.568808
1287671126331,0.567110
1287671186331,0.572178
1287671246331,0.567944
1287671306331,0.568659
1287671366331,0.570005
1287671426331,0.568089
1287671486331,0.565196
1287671546331,0.568843
1287671606331,0.566708
1287671666331,0.570798
1287671726331,0.566634
1287671786331,0.567349
1287671846331,0.567600
1287671906331,0.567106
1287671966331,0.562520
1287672026331,0.566962
1287672086331,0.565810
1287672146331,0.569227
1287672206331,0.569105
1287672266331,0.568864
1287672326331,0.572863
1287672386331,0.566838
1287672446331,0.561721
1287672506331,0.569091
1287672566331,0.566844
1287672626331,0.569250
1287672686331,0.572943
1287672746331,0.568454
1287672806331,0.573449
1287672866331,0.577144
1287672926331,0.563972
1287672986331,0.570758
1287673046331,0.571083
1287673106331,0.565762
1287673166331,0.570218
1287673226343,0.567791
1287673286343,0.569434
1287673346343,0.569688
1287673406343,0.570746
1287673466343,0.573678
1287673526343,0.573036
1287673586343,0.568034
1287673646343,0.574859
1287673706343,0.575691
1287673766343,0.573550
1287673826343,0.572812
1287673886343,0.575840
1287673946343,0.565945
1287674006343,0.572204
1287674066343,0.577312
1287674126343,0.566855
1287674186343,0.572713
1287674246343,0.572133
1287674306343,0.566670
1287674366343,0.567962
1287674426343,0.571196
1287674486343,0.569697
1287674546343,0.567174
1287674606343,0.576652
1287674666343,0.576891
1287674726343,0.565812
1287674786343,0.566940
1287674846343,0.573084
1287674906343,0.564910
1287674966343,0.571373
1287675026343,0.567223
1287675086343,0.571838
1287675146343,0.568930
1287675206343,0.567047
1287675266343,0.570230
1287675326343,0.566929
1287675386343,0.570509
1287675446343,0.570619
1287675506343,0.573738
1287675566343,0.568805
1287675626343,0.569285
1287675686343,0.569141
1287675746343,0.564340
1287675806343,0.567205
1287675866343,0.566052
1287675926343,0.567257
1287675986343,0.563598
1287676046343,0.571409
1287676106343,0.570527
1287676166343,0.571658
1287676226343,0.561144
1287676286343,0.576205
1287676346343,0.570966
1287676406343,0.561686
1287676466343,0.568160
1287676526343,0.570872
1287676586343,0.565271
1287676646343,0.568984
1287676706343,0.573053
1287676766343,0.568796
1287676826355,0.568041
1287676886355,0.566729
1287676946355,0.568711
1287677006355,0.573070
1287677066355,0.565514
1287677126355,0.561855
1287677186355,0.569446
1287677246355,0.572402
1287677306355,0.569626
1287677366355,0.576961
1287677426355,0.567070
1287677486355,0.571069
1287677546355,0.571568
1287677606355,0.574158
1287677666355,0.573147
1287677726355,0.568584
1287677786355,0.573236
1287677846355,0.572580
1287677906355,0.568377
1287677966355,0.569244
1287678026355,0.572218
1287678086355,0.563966
1287678146355,0.575269
1287678206355,0.572199
1287678266355,0.563197
1287678326355,0.564654
1287678386355,0.572864
1287678446355,0.568552
1287678506355,0.572338
1287678566355,0.576349
1287678626355,0.567896
1287678686355,0.566476
1287678746355,0.565375
1287678806355,0.565820
1287678866355,0.568192
1287678926355,0.566078
1287678986355,0.569070
1287679046355,0.572968
1287679106355,0.572155
1287679166355,0.572068
1287679226355,0.563924
1287679286355,0.568950
1287679346355,0.571292
1287679406355,0.571859
1287679466355,0.572439
1287679526355,0.571718
1287679586355,0.573711
1287679646355,0.572675
1287679706355,0.566871
1287679766355,0.574859
1287679826355,0.568753
1287679886355,0.570463
1287679946355,0.567876
1287680006355,0.564663
1287680066355,0.569129
1287680126355,0.567859
1287680186355,0.568991
1287680246355,0.567684
1287680306355,0.562575
1287680366355,0.571571
1287680426367,0.573584
1287680486367,0.572220
1287680546367,0.570441
1287680606367,0.570638
1287680666367,0.567876
1287680726367,0.571820
1287680786367,0.567271
1287680846367,0.569406
1287680906367,0.566707
1287680966367,0.569270
1287681026367,0.562883
1287681086367,0.567700
1287681146367,0.566012
1287681206367,0.568425
1287681266367,0.564534
1287681326367,0.567655
1287681386367,0.570076
1287681446367,0.567974
1287681506367,0.564298
1287681566367,0.577707
1287681626367,0.567700
1287681686367,0.569912
1287681746367,0.571066